Breeders Fall Classic - 325 FINAL

Station: Linton IN - A Race

Distance: 325 Miles

Release: 14-Oct-2020 08:00

Weather Release:    Arrival: Clear

Wind at Release: Calm     Wind at Arrival: Calm

Temp at Release: 64°    Temp at Arrival: 66°

Lofts: 69

Birds: 185

Clocked: 114

Good Luck to Everyone!
Drops Pos Breeder Pigeon Name Color Sex Ent Arrival Speed To Win Elg PdColored
6,400 1 Cherokee Loft - MI 0632-AU20-CHER 51 Bourgoin X 1557 Nanez SILV H 1 16:02:04.20 1186.550 00:00:00 Yes
6,400 2 Elite Loft - IL 0801-AU20-ELIT BC H 1 16:02:06.40 1186.459 00:00:02 Yes
7,400 3 Lindbergh Flyers - MO 20551-AU20-NERP BB H 1 16:02:07.70 1186.406 00:00:04 Yes
6,400 4 Magic Pick Loft - OH 0040-AU20-IHC Daniela BB H 1 16:02:11.70 1186.242 00:00:08 Yes
6,400 5 Hayloft - CA 0269-AU20-GSF BB H 1 16:02:26.10 1185.652 00:00:22 Yes
2,000 6 Salvicon - CA 1161-AU20-FCON BB H 1 16:07:49.90 1172.536 00:05:46 Yes
1,000 7 Bruce Daehn - FL 0409-AU20-NWFI Sal's Boy X Fh#1 BB H 1 16:07:50.50 1172.512 00:05:46 Yes
1,000 8 KT Loft - IN 0410-AU20-KTLF BB H 1 16:07:52.50 1172.431 00:05:48 Yes
1,000 9 Loan Tran - MA 13099-AU20-FOYS BB H 1 16:07:52.80 1172.419 00:05:49 Yes
4,000 10 Jacks Galaxy 2 - NV 0008-AU20-XXX 1322 X 9 BB H 1 16:07:53.60 1172.387 00:05:49 Yes
750 11 Bruce Daehn - FL 0414-AU20-NWFI Nooorm X Fh#1 BB H 2 16:07:55.30 1172.319 00:05:51 Yes
4750 12 Partridge Family Loft - CA 2224-AU20-PASO BC H 1 16:07:55.70 1172.303 00:05:52 Yes
750 13 Dave Dudley/Ron Moden - CO 20102-AU20-PUEB 225 X 249 BBPD H 1 16:07:56.40 1172.275 00:05:52 Yes
600 14 Magic Pick Loft - OH 0070-AU20-IHC Lola BB H 2 16:07:57.70 1172.223 00:05:54 Yes
2,600 15 Cloux Loft - CO 20711-AU20-FH BC H 1 16:07:57.80 1172.219 00:05:54 Yes
600 16 Marengo Creek Farms - GA 3616-AU20-MCF BB H 1 16:07:58.10 1172.207 00:05:54 Missing
5600 17 Liberty Loft - MA 13104-AU20-FOYS BB H 1 16:08:02.50 1172.031 00:05:58 Yes
500 18 Denali Loft - MT 7543-AU20-AA DC H 1 16:08:07.10 1171.847 00:06:03 Yes
500 19 White Arrow Loft - IL 5822-AU20-VITA BB H 1 16:08:10.10 1171.727 00:06:06 Yes
500 20 White Arrow Loft - IL 0507-AU20-LCC BB H 2 16:08:19.00 1171.371 00:06:15 Yes
21 Lindbergh Flyers - MO 20557-AU20-NERP BC H 2 16:11:11.40 1164.519 00:09:07 Yes
22 Clear Springs Loft - FL 0010-AU20-WARD BB H 1 16:14:06.10 1157.656 00:12:02 Yes
23 Long Island Syndicate - NY 68514-AU20-ARPU BBSP H 1 16:14:42.80 1156.225 00:12:39 Yes
24 Holts Loft - NC 11610-AU20-AA BB H 1 16:14:44.80 1156.147 00:12:41 Yes
25 Ron Pairan - OH 0650-AU20-LFO BB H 1 16:14:50.70 1155.918 00:12:46 Yes
26 Abilene Loft - OH 1329-AU20-MVS BC H 1 16:19:11.40 1145.856 00:17:07 Yes
27 Red Ass Ranch - TX 0633-AU20-RAR BB H 1 16:20:12.30 1143.531 00:18:08 Yes
28 John Haller - OH 0508-AU20-IHC BB H 1 16:28:40.10 1124.505 00:26:36 Yes
29 S & P Loft - MI 1408-AU20-JEDD CHOC H 1 16:28:40.80 1124.479 00:26:37 Yes
30 Hayloft - CA 0221-AU20-GSF BB H 2 16:28:41.70 1124.446 00:26:38 Yes
31 Hale Nūnū - VA 0003-AU20-NUNU BC H 1 16:28:42.00 1124.435 00:26:38 Yes
32 Ron Pairan - OH 0647-AU20-LFO BB H 2 16:28:44.90 1124.328 00:26:41 Yes
33 Double J Racing Loft - OH 0411-AU20-IRPC BB H 1 16:28:49.60 1124.155 00:26:45 Yes
34 Sanborn Loft - OH 0752-AU20-IHC SLWF H 1 16:33:16.50 1114.412 00:31:12 Yes
35 Kevin Hines - LA 20472-AU20-MET BB H 1 16:35:25.40 1109.767 00:33:21 Yes
36 Alas De Oro - NV 71073-IF20-E BBT H 1 16:35:26.40 1109.731 00:33:22 Yes
37 A P C Loft - TX 20159-AU20-APC BC H 1 16:35:27.90 1109.678 00:33:24 Yes
38 Robbie Howell - MS 2862-IF20-METO BC H 1 16:35:28.20 1109.667 00:33:24 Yes
39 Loan Tran - MA 13098-AU20-FOYS BB H 2 16:35:31.60 1109.545 00:33:27 Yes
39 Stevw Piroch - OH 1108-AU20-IHC BC H 1 16:35:31.60 1109.545 00:33:27 Yes
41 Long Island Syndicate - NY 68516-AU20-ARPU BBSP H 2 16:35:33.90 1109.462 00:33:30 Yes
42 Cherokee Loft - MI 0599-AU20-CHER 12008-414 Equalizer-Storm BC H 2 16:35:44.50 1109.082 00:33:40 Yes
43 KT Loft - IN 0408-AU20-KTLF BB H 2 16:37:18.60 1105.720 00:35:14 Yes
44 John Fukumoto - HI 0813-AU20-HAWN BC H 1 16:37:23.40 1105.549 00:35:19 Yes
45 Dave Dudley/Ron Moden - CO 20426-AU20-PUEB 1122 X 4307 BC H 2 16:37:26.00 1105.456 00:35:22 Yes
46 Iditarod Loft - MT 7542-AU20-AA RR H 1 16:39:06.40 1101.893 00:37:02 Yes
47 Lazy A C Loft - IN 0756-AU20-LAZY BLST H 1 16:39:37.80 1100.783 00:37:34 Yes
48 Marengo Creek Farms - GA 3617-AU20-MCF BBWF H 2 16:39:39.30 1100.730 00:37:35 Yes
49 Hale Nūnū - VA 0009-AU20-NUNU BBSP H 2 16:39:40.00 1100.706 00:37:36 Yes
50 Wareagle Loft - AL 0654-AU20-WEL BB H 1 16:39:42.40 1100.621 00:37:38 Yes
51 Lindbergh Flyers - MO 20513-AU20-NERP BB H 3 16:39:42.70 1100.610 00:37:39 Yes
52 John Fukumoto - HI 0814-AU20-HAWN BCWF H 2 16:39:46.40 1100.480 00:37:42 Yes
53 Sanborn Loft - OH 0753-AU20-IHC BB H 2 16:39:49.00 1100.388 00:37:45 Yes
54 Columba Loft - GA 0193-AU20-LYCH BB H 1 16:39:53.00 1100.247 00:37:49 Yes
55 Lazy A C Loft - IN 0759-AU20-LAZY BB H 2 16:40:47.10 1098.342 00:38:43 Yes
56 Denali Loft - MT 7558-AU20-AA BC H 2 16:43:35.20 1092.465 00:41:31 Yes
57 Elite Loft - IL 0806-AU20-ELIT BB H 2 16:43:38.40 1092.354 00:41:34 Yes
58 Columba Loft - GA 0205-AU20-LYCH SILV H 2 16:43:39.10 1092.329 00:41:35 Yes
59 Hayloft - CA 0243-AU20-GSF BC H 3 16:49:18.40 1080.659 00:47:14 Yes
60 Zeke - NY 68511-AU20-ARPU BB H 1 17:02:57.40 1053.491 01:00:53 Yes
61 Swc Club - PA 1383-AU20-FOYS BB H 1 17:02:58.80 1053.446 01:00:55 Yes
62 Bruce Daehn - FL 0411-AU20-NWFI BB H 3 17:03:00.60 1053.388 01:00:56 Yes
63 Sherwood Loft - UT 0469-AU20-UCA BCPW H 1 17:03:03.60 1053.291 01:00:59 Yes
64 Rachel Olivieri - CA 20541-AU20-LAKE 23 X 003 BB H 1 17:03:11.80 1053.026 01:01:08 Yes
65 Cloux Loft - CO 20705-AU20-FH RC H 2 17:18:19.00 1024.508 01:16:15 Yes
66 Chen Loft - PA 0002-AU20-CHEN Super King—chens Girl BB H 1 17:18:22.70 1024.395 01:16:19 Missing
67 Long Island Syndicate - NY 0060-IF20-LUDO VELT H 3 17:18:24.20 1024.349 01:16:20 Yes
68 Marlboro Loft - PA 1819-IF20-PHX BC H 1 17:23:35.20 1014.928 01:21:31 Yes
69 Abilene Loft - OH 1341-AU20-MVS BB H 2 17:23:36.80 1014.880 01:21:33 Yes
70 Tex-Mex Loft - TX 0081-AU20-TXMX Baronesa Roja RC H 1 17:57:02.40 958.060 01:54:58 Yes
71 John V. Partridge - CA 2124-AU20-PASO Tony's Heat BB H 1 18:07:45.70 941.158 02:05:42 Yes
72 Jacks Galaxy 2 - NV 0001-AU20-XXX Max X 31 DC H 2 18:13:55.30 931.715 02:11:51 Yes
73 Columba Loft - GA 0290-AU20-LYCH BB H 3 19:09:05.30 854.895 03:07:01 Yes
74 David Martinez - NY 0426-AU20-IRPC LBC H 1 19:09:07.80 854.841 03:07:04 Yes
75 Holts Loft - NC 0500-AU20-MAC PENL H 2 19:09:11.70 854.758 03:07:08 Yes
76 Clear Springs Loft - FL 0020-AU20-WARD BB H 2 2020-10-15 07:43:01.60 807.157 03:46:35 Yes
77 John Haller - OH 0503-AU20-IHC BB H 2 2020-10-15 08:06:01.10 781.793 04:09:35 Yes
78 Borgeson Loft - LA 20527-AU20-MET DC H 1 2020-10-15 08:39:34.60 747.507 04:43:08 Yes
79 Kevin Hines - LA 20452-AU20-MET SLAT H 2 2020-10-15 08:39:38.10 747.450 04:43:12 Yes
80 Elton Dinga - TX 11048-AU20-AA Hebberecht 579 Br Jempy BC H 1 2020-10-15 08:39:40.20 747.416 04:43:14 Yes
81 Marengo Creek Farms - GA 3624-AU20-MCF BB H 3 2020-10-15 08:44:34.40 742.658 04:48:08 Yes
82 Marengo Creek Farms - GA 3623-AU20-MCF BB H 4 2020-10-15 08:44:36.00 742.632 04:48:10 Yes
83 Rachel Olivieri - CA 20552-AU20-LAKE G X 1841 BBWF H 2 2020-10-15 08:49:23.00 738.049 04:52:57 Yes
84 Hawkroost Loft - OH 0100-AU20-COV WHGZ H 1 2020-10-15 08:49:27.90 737.971 04:53:02 Yes
85 Royal Ridge Loft - OH 0330-AU20-HOF DC H 1 2020-10-15 09:04:09.30 724.245 05:07:43 Yes
86 Liberty Loft - MA 13102-AU20-FOYS BB H 2 2020-10-15 09:12:38.30 716.548 05:16:12 Yes
87 385 Connection - SC 0015-AU20-GRPC BBWF H 1 2020-10-15 09:15:24.80 714.066 05:18:59 Yes
88 Alas De Oro - NV 71150-IF20-E BB H 2 2020-10-15 09:19:47.70 710.181 05:23:22 Yes
89 A P C Loft - TX 20150-AU20-APC BB H 2 2020-10-15 09:21:08.10 709.002 05:24:42 Yes
90 Loan Tran - MA 13086-AU20-FOYS PENC H 3 2020-10-15 09:55:10.00 680.304 05:58:44 Yes
91 Long Island Syndicate - NY 0099-IF20-LUDO RED H 4 2020-10-15 10:00:26.50 676.063 06:04:00 Yes
92 Zeke - NY 68510-AU20-ARPU BBSP H 2 2020-10-15 10:00:59.50 675.624 06:04:33 Yes
93 Andy Owen - GA 0023-AU20-AOWN BB H 1 2020-10-15 10:15:07.90 664.525 06:18:42 Yes
94 Loan Tran - MA 13087-AU20-FOYS PENC H 4 2020-10-15 10:21:16.00 659.822 06:24:50 Yes
95 Tim Byers - OH 1507-AU20-BUCK BB H 1 2020-10-15 10:28:39.10 654.249 06:32:13 Yes
96 A P C Loft - TX 20157-AU20-APC BC H 3 2020-10-15 10:28:40.50 654.231 06:32:14 Yes
97 S & P Loft - MI 1419-AU20-JEDD BBWF H 2 2020-10-15 10:37:47.70 647.478 06:41:21 Yes
98 Abilene Loft - OH 1345-AU20-MVS BBSP H 3 2020-10-15 10:43:52.70 643.049 06:47:27 Yes
99 Do Drop In Loft - NC 0075-IF20-TRC Show Me BB H 1 2020-10-15 10:53:48.70 635.948 06:57:22 Yes
100 Salvicon - CA 0067-AU20-RBPC BC H 2 2020-10-15 10:54:49.60 635.231 06:58:23 Yes

There are 243 bird records

Note: These Race Results are unofficial and subject to change until verified by the Race Committee and declared final.